Wind_Speed
17 16 18 18 22 21 20 19 17 19 19 18 21 22 23 22 19 15 12 11 9 7 5 4 6 11 14 13 13 12 8 9 11 14 5 3 6 10 14 18 17 12 12 14 14
19 19 19 19 20 20 20 19 20 19 20 18 16 20 25 25 23 19 17 12 12 10 8 4 6 11 12 13 15 12 11 8 12 14 2 2 6 9 14 17 14 10 11 14 15
22 21 20 21 22 22 21 20 20 21 21 20 17 16 20 27 27 25 21 17 13 14 11 8 6 9 12 17 18 13 16 11 8 9 6 5 5 10 10 13 13 11 13 15 14
22 23 22 22 23 23 23 23 22 22 22 22 21 19 18 23 28 28 25 22 18 15 14 13 11 10 12 18 20 18 16 16 16 13 10 5 3 7 8 11 11 9 11 13 14
27 26 26 26 25 25 24 24 25 25 23 23 24 23 21 23 24 28 28 26 23 19 17 16 16 15 14 17 19 18 19 17 17 17 19 14 5 5 6 10 9 12 13 15 13
29 31 30 30 29 28 28 28 28 29 27 25 24 24 25 26 21 23 28 29 27 24 20 21 21 19 16 19 18 18 16 15 15 16 14 16 12 10 4 6 9 10 12 14 16
25 27 27 27 29 32 32 33 34 34 30 29 27 26 26 27 22 25 28 32 31 29 28 25 25 23 18 19 20 18 17 16 17 16 15 16 16 8 7 6 4 3 5 10 15
23 22 25 28 29 28 29 31 34 35 34 33 29 29 28 25 27 30 29 29 31 33 33 29 27 25 23 21 20 17 18 19 19 19 17 14 14 11 5 8 7 1 3 6 9
26 26 26 26 26 28 30 32 33 30 32 36 33 31 32 28 32 31 28 27 29 32 36 34 29 28 26 23 20 17 20 22 25 24 20 16 15 13 10 9 4 2 3 2 9
34 33 32 29 28 29 29 30 34 32 29 30 33 35 34 31 34 29 29 29 29 32 33 34 31 30 28 25 21 18 19 26 27 26 24 21 18 16 14 12 6 6 3 2 3
41 39 36 35 34 31 32 33 32 31 33 28 26 32 36 36 37 32 31 30 31 31 30 34 32 27 28 30 28 26 22 23 29 32 29 28 22 18 16 13 9 7 1 4 12
42 44 44 40 37 36 35 35 33 33 29 31 27 26 35 38 38 37 34 32 31 29 31 31 25 32 35 34 33 32 28 23 28 36 35 32 25 16 16 16 15 13 5 4 6
41 43 44 42 41 39 38 37 37 34 29 30 28 23 31 35 36 38 35 34 33 33 28 28 31 36 37 37 34 33 30 27 25 37 43 34 30 22 18 16 14 10 4 1 3
40 40 41 44 42 41 40 40 38 35 33 24 31 25 29 27 34 40 37 36 36 33 30 31 33 35 34 34 34 33 29 30 31 34 35 32 28 27 23 22 18 14 12 11 8
43 40 40 42 43 43 43 43 42 37 37 26 33 29 31 25 24 33 32 36 34 32 34 28 34 39 38 33 34 31 33 34 34 33 34 33 29 28 28 26 22 19 19 19 18
44 44 42 43 44 45 45 46 45 42 40 30 32 33 34 28 27 31 33 34 33 36 35 33 38 39 37 38 35 36 36 34 34 34 35 34 32 31 31 31 28 23 22 23 21
45 45 46 46 48 48 49 49 48 44 37 35 37 34 35 30 28 30 30 30 31 35 33 34 35 33 35 38 37 36 35 34 35 37 38 37 35 39 38 38 33 30 29 27 29
51 50 51 53 52 51 51 51 49 45 40 39 38 35 37 35 35 33 30 28 29 28 28 32 34 33 34 36 37 35 35 35 37 38 38 39 41 42 40 41 39 34 34 34 34
56 61 56 58 58 56 54 53 48 46 44 41 39 37 38 40 39 36 33 27 26 25 27 32 33 34 34 35 36 34 36 35 37 34 37 42 43 41 38 36 33 30 27 26 28
65 67 59 57 61 61 60 55 52 49 49 42 42 40 39 40 41 37 31 30 29 25 26 30 33 36 39 36 35 35 35 34 36 35 34 38 39 40 37 34 31 29 31 30 28
46 50 42 48 51 60 64 60 56 51 50 43 44 44 43 41 41 37 31 28 29 26 26 29 31 38 40 38 36 36 34 36 34 34 32 34 37 37 36 33 30 29 28 33 32
29 30 31 40 49 54 58 60 57 52 50 46 50 49 47 43 43 39 31 28 29 28 27 27 29 40 38 36 30 30 34 28 30 29 30 30 30 36 35 31 31 29 27 30 32
35 35 35 40 43 45 49 53 57 50 50 53 54 53 47 46 45 41 32 31 32 30 29 29 32 39 33 30 28 32 31 27 24 24 23 26 28 28 27 30 33 35 36 36 38
37 36 31 48 44 43 46 47 52 48 55 58 56 54 49 48 45 40 35 35 32 30 27 32 34 33 29 25 25 29 31 27 27 26 26 26 25 26 25 26 27 29 31 34 36
30 16 11 18 44 44 44 44 47 53 58 55 56 54 51 48 41 35 38 37 34 32 31 36 36 30 28 28 27 30 28 22 19 19 21 21 24 25 28 30 31 32 33 34 36
20 17 6 10 40 41 46 42 43 55 57 56 54 56 53 46 40 41 40 39 37 34 35 36 35 33 32 30 29 26 23 22 22 21 22 22 22 25 26 28 29 32 34 35 38
13 7 9 11 30 33 33 32 41 61 57 58 57 57 51 45 42 42 41 40 35 34 33 36 33 34 33 29 28 27 27 27 28 29 27 27 28 29 30 32 36 38 39 39 37
Wind_Direction
238 248 241 242 241 240 242 239 237 243 240 233 234 233 237 237 240 242 239 248 231 213 237 228 206 199 201 198 201 197 227 200 208 206 165 169 98 86 74 51 39 34 28 34 49
243 238 239 236 239 240 239 237 235 235 237 231 227 230 237 235 237 239 241 241 244 224 224 241 232 205 197 199 201 196 194 196 212 216 185 180 105 78 71 60 41 36 35 27 29
252 245 239 239 240 241 243 240 237 233 233 229 225 227 230 236 235 238 238 237 242 237 223 214 223 234 202 199 199 193 192 215 228 246 192 158 53 76 79 70 45 45 34 26 19
251 253 248 242 239 239 239 242 240 234 229 230 225 223 227 231 229 232 236 237 237 239 233 217 215 216 224 211 214 210 215 236 250 247 217 346 286 88 96 87 58 43 25 22 19
254 249 250 248 246 243 244 243 244 239 232 228 228 224 223 231 229 225 231 234 234 235 232 231 222 217 208 220 232 232 226 235 241 244 248 270 332 264 133 103 86 51 30 22 14
251 251 247 248 250 250 250 250 246 244 240 231 227 224 223 228 228 225 226 227 232 232 230 226 226 228 218 219 227 237 243 241 238 251 255 281 315 310 269 122 105 68 33 26 15
259 259 259 257 253 254 253 251 250 247 243 238 227 226 224 226 224 224 220 222 223 226 229 226 229 228 229 224 229 239 245 250 248 256 265 288 310 316 244 237 245 78 28 12 14
263 260 261 258 257 253 252 252 251 249 246 242 234 227 225 220 222 224 222 218 220 222 226 226 227 230 228 231 238 238 244 247 251 258 268 284 296 304 276 257 289 23 218 309 348
259 259 257 256 256 255 251 250 253 255 248 245 236 230 228 219 224 226 228 226 222 223 226 225 220 224 229 230 237 242 240 239 238 250 260 270 286 302 290 282 299 243 190 294 340
258 259 260 256 257 256 255 254 251 251 251 248 241 231 230 224 226 226 225 227 227 226 226 229 223 220 223 230 232 235 243 236 241 250 259 264 275 284 280 265 239 233 295 43 4
259 258 258 258 259 257 258 252 254 250 247 249 247 233 227 226 227 223 222 224 227 231 227 230 229 225 221 225 224 223 229 237 237 245 252 260 263 272 274 256 253 268 70 140 344
259 259 258 259 257 254 255 256 256 253 250 243 245 235 228 224 224 226 221 223 226 228 229 229 228 226 224 223 224 224 219 222 231 239 249 253 260 258 260 249 259 268 254 257 336
263 258 255 254 252 252 248 250 251 251 251 249 237 232 232 226 219 224 222 222 220 224 223 227 221 224 224 224 226 229 230 223 219 228 240 247 246 246 252 258 260 279 310 312 322
265 262 257 253 251 248 247 247 248 250 250 237 240 223 233 227 216 221 220 220 220 221 221 221 224 229 228 229 229 229 229 228 224 225 235 240 243 242 249 260 263 251 248 243 252
268 261 256 251 249 249 246 247 247 247 250 237 238 221 231 226 212 224 224 220 220 218 221 221 224 226 226 224 223 219 223 227 227 229 234 242 246 245 251 257 258 260 258 267 261
267 265 257 250 245 245 245 244 244 243 243 237 232 225 224 218 212 216 219 221 218 217 215 215 223 227 224 224 222 219 222 226 231 234 236 242 247 252 251 255 258 260 261 264 279
266 263 260 252 245 242 241 242 242 240 239 233 230 226 218 215 212 220 221 226 225 225 218 218 223 225 225 226 226 222 226 223 227 231 232 235 242 246 249 257 259 260 267 270 272
269 263 256 253 247 241 237 237 238 237 235 237 229 224 219 210 209 215 220 220 221 224 222 226 224 222 222 224 227 221 227 227 227 230 234 238 241 244 255 258 264 265 270 271 274
267 267 257 250 248 243 239 236 234 235 235 233 228 220 216 212 211 212 214 216 220 224 220 225 223 220 219 223 227 225 226 228 229 235 237 239 244 251 256 260 263 269 272 273 272
266 259 262 251 244 243 239 236 233 232 232 224 223 219 215 213 214 211 214 217 217 212 212 223 217 215 217 217 227 226 223 228 234 234 235 238 243 250 254 259 265 270 270 275 265
273 264 253 243 237 237 236 232 231 226 225 212 215 217 214 211 211 212 215 213 218 213 214 218 213 215 223 224 226 233 238 239 242 242 241 243 243 248 251 255 261 267 271 271 275
292 273 258 240 226 230 232 228 225 218 215 202 206 210 211 211 211 210 208 210 216 215 216 219 208 214 223 228 229 229 235 238 243 242 241 241 240 242 248 254 258 263 266 269 266
296 274 254 239 234 226 224 220 220 209 198 193 200 205 206 211 210 209 202 209 211 210 212 208 204 206 221 230 227 226 233 239 241 238 236 236 245 249 251 254 261 265 270 273 277
317 295 255 230 225 219 216 213 212 199 190 190 196 198 198 210 211 208 204 208 208 206 205 204 198 206 216 218 220 219 229 237 242 247 250 248 250 251 255 260 265 270 275 276 280
334 317 269 239 209 212 212 207 203 188 187 189 193 192 193 204 204 199 199 199 202 201 198 202 192 197 210 214 214 222 235 241 239 249 257 254 254 258 263 267 273 280 282 284 285
351 10 226 223 201 207 207 205 197 185 179 183 185 190 191 199 197 193 192 196 203 199 203 203 196 199 211 217 219 230 243 252 243 251 260 262 273 277 276 281 285 294 294 289 292
308 337 347 207 198 204 203 203 194 182 172 175 180 187 187 188 189 183 185 184 194 197 195 197 198 202 211 216 221 231 242 255 254 259 261 262 269 275 278 284 287 285 290 288 288
Height
5851 5853 5855 5856 5858 5860 5861 5863 5866 5869 5872 5873 5874 5877 5880 5882 5885 5887 5889 5890 5891 5892 5893 5894 5894 5895 5897 5900 5902 5904 5906 5906 5906 5906 5909 5909 5907 5906 5905 5904 5904 5904 5902 5903 5903
5847 5849 5850 5852 5855 5856 5857 5859 5862 5864 5868 5869 5870 5872 5875 5878 5881 5884 5887 5888 5889 5891 5892 5893 5893 5894 5896 5899 5901 5903 5905 5905 5905 5908 5911 5911 5909 5910 5909 5905 5906 5905 5904 5905 5905
5842 5844 5846 5848 5850 5852 5853 5854 5857 5859 5862 5865 5867 5868 5870 5874 5877 5880 5883 5885 5887 5889 5890 5892 5892 5894 5895 5897 5899 5903 5905 5905 5906 5907 5910 5912 5910 5910 5910 5908 5908 5906 5904 5905 5906
5839 5839 5841 5843 5846 5846 5849 5850 5852 5855 5858 5860 5863 5864 5866 5868 5873 5876 5879 5882 5885 5887 5889 5890 5891 5892 5894 5896 5898 5901 5903 5904 5906 5908 5911 5912 5912 5910 5909 5910 5909 5907 5906 5906 5908
5833 5836 5837 5839 5840 5843 5844 5845 5846 5850 5853 5855 5858 5860 5862 5863 5867 5871 5874 5878 5881 5884 5886 5888 5889 5890 5892 5894 5896 5898 5901 5904 5906 5907 5909 5910 5913 5912 5908 5908 5909 5908 5908 5907 5907
5828 5829 5831 5833 5834 5836 5838 5839 5840 5844 5848 5849 5852 5855 5857 5858 5862 5866 5869 5872 5876 5880 5883 5884 5886 5887 5889 5891 5893 5895 5898 5901 5903 5904 5906 5907 5909 5912 5910 5907 5908 5910 5910 5909 5907
5821 5821 5822 5823 5826 5829 5831 5832 5834 5838 5842 5844 5846 5850 5852 5854 5858 5859 5862 5865 5870 5874 5877 5880 5882 5885 5888 5889 5891 5893 5896 5898 5900 5902 5903 5905 5907 5909 5909 5908 5907 5909 5911 5911 5909
5816 5817 5817 5819 5820 5822 5824 5825 5826 5829 5834 5838 5841 5844 5846 5851 5851 5852 5856 5860 5863 5867 5871 5875 5879 5882 5885 5887 5889 5891 5894 5895 5897 5898 5901 5902 5904 5904 5906 5906 5906 5907 5910 5911 5910
5812 5813 5814 5814 5815 5816 5818 5819 5818 5822 5826 5828 5834 5838 5840 5845 5845 5848 5853 5857 5859 5860 5865 5869 5874 5878 5882 5884 5887 5889 5890 5892 5894 5895 5898 5899 5900 5902 5904 5905 5906 5906 5908 5909 5910
5804 5805 5807 5808 5809 5810 5810 5810 5812 5816 5819 5821 5826 5831 5835 5839 5839 5844 5847 5851 5854 5855 5859 5866 5869 5873 5878 5881 5884 5886 5888 5890 5890 5892 5894 5896 5898 5899 5902 5904 5904 5905 5906 5907 5908
5795 5796 5798 5800 5801 5803 5805 5805 5807 5810 5813 5816 5819 5822 5825 5831 5833 5837 5841 5844 5847 5852 5856 5860 5866 5872 5874 5875 5878 5880 5884 5887 5889 5889 5890 5892 5895 5896 5899 5901 5903 5904 5905 5905 5906
5785 5786 5788 5790 5792 5794 5795 5796 5799 5803 5806 5808 5811 5814 5816 5821 5828 5830 5835 5839 5844 5847 5849 5856 5864 5864 5865 5868 5872 5875 5878 5882 5887 5885 5885 5888 5891 5895 5897 5900 5901 5901 5903 5903 5903
5774 5775 5778 5780 5782 5784 5786 5788 5790 5794 5799 5801 5805 5809 5809 5815 5821 5823 5828 5832 5837 5839 5844 5852 5856 5855 5858 5862 5867 5872 5876 5879 5881 5881 5881 5883 5887 5892 5893 5894 5897 5900 5900 5899 5899
5763 5764 5766 5768 5772 5773 5776 5778 5781 5786 5790 5797 5796 5802 5802 5809 5813 5815 5821 5827 5830 5834 5839 5844 5848 5851 5856 5859 5863 5867 5873 5872 5873 5875 5877 5880 5884 5885 5889 5890 5894 5894 5893 5893 5894
5750 5753 5755 5757 5760 5761 5765 5768 5772 5778 5780 5789 5789 5795 5796 5804 5809 5810 5815 5819 5825 5828 5833 5841 5842 5844 5847 5854 5856 5863 5864 5866 5868 5870 5873 5876 5880 5883 5884 5886 5889 5889 5890 5890 5888
5738 5740 5743 5745 5747 5748 5752 5756 5762 5769 5772 5779 5781 5787 5791 5797 5801 5803 5808 5813 5817 5819 5824 5829 5833 5839 5844 5846 5852 5853 5858 5863 5865 5867 5870 5872 5875 5876 5878 5880 5882 5883 5884 5884 5885
5726 5727 5729 5731 5733 5735 5739 5743 5749 5756 5764 5768 5773 5778 5784 5790 5796 5799 5803 5808 5813 5817 5822 5825 5828 5835 5839 5842 5846 5850 5854 5858 5861 5861 5865 5867 5869 5868 5869 5871 5875 5877 5878 5879 5879
5710 5712 5713 5714 5716 5720 5725 5732 5739 5748 5754 5759 5765 5771 5778 5783 5788 5793 5798 5802 5806 5812 5818 5820 5825 5829 5833 5837 5841 5846 5850 5854 5854 5857 5861 5862 5861 5862 5864 5865 5868 5870 5871 5871 5872
5691 5688 5693 5693 5696 5703 5710 5718 5731 5738 5743 5750 5757 5763 5769 5775 5781 5787 5792 5799 5802 5808 5814 5815 5820 5824 5829 5833 5837 5841 5845 5849 5851 5854 5857 5857 5857 5857 5858 5858 5860 5864 5866 5866 5867
5665 5663 5664 5667 5675 5682 5692 5706 5717 5724 5732 5741 5747 5755 5762 5769 5775 5781 5788 5794 5798 5803 5807 5811 5816 5820 5822 5828 5832 5836 5841 5843 5846 5848 5850 5851 5853 5853 5853 5853 5855 5858 5860 5860 5862
5636 5638 5641 5641 5650 5659 5675 5689 5700 5711 5720 5731 5738 5746 5753 5760 5768 5776 5783 5790 5794 5799 5803 5806 5812 5815 5818 5823 5829 5832 5836 5838 5841 5843 5844 5846 5847 5847 5848 5850 5851 5853 5854 5854 5854
5627 5627 5629 5629 5633 5640 5658 5673 5685 5697 5708 5718 5728 5736 5743 5752 5760 5769 5778 5785 5789 5795 5798 5802 5807 5809 5812 5817 5824 5827 5830 5834 5835 5838 5839 5841 5843 5842 5845 5847 5847 5848 5848 5847 5846
5618 5616 5616 5617 5623 5633 5643 5655 5668 5686 5697 5708 5718 5729 5738 5746 5755 5764 5774 5779 5782 5788 5793 5797 5800 5805 5808 5814 5818 5822 5826 5829 5831 5832 5833 5837 5839 5840 5842 5843 5843 5843 5842 5842 5841
5606 5593 5591 5599 5611 5624 5632 5645 5656 5674 5690 5700 5710 5722 5732 5739 5748 5759 5768 5772 5777 5784 5790 5794 5799 5803 5807 5812 5815 5819 5822 5825 5827 5829 5830 5832 5834 5835 5838 5839 5839 5838 5837 5836 5834
5600 5589 5588 5587 5601 5613 5625 5636 5648 5664 5680 5690 5704 5716 5726 5733 5744 5756 5763 5766 5772 5779 5784 5790 5796 5802 5805 5809 5813 5816 5819 5822 5823 5825 5825 5828 5829 5831 5832 5833 5833 5832 5832 5830 5829
5603 5595 5592 5590 5599 5607 5617 5630 5643 5654 5671 5686 5700 5709 5720 5731 5741 5747 5757 5764 5769 5775 5781 5786 5793 5799 5803 5806 5810 5812 5814 5817 5819 5821 5821 5822 5824 5825 5826 5827 5827 5825 5824 5822 5820
5605 5601 5599 5599 5603 5610 5623 5632 5640 5652 5669 5684 5690 5705 5720 5727 5736 5744 5750 5759 5768 5774 5778 5783 5789 5796 5799 5803 5807 5809 5810 5812 5814 5816 5817 5818 5819 5819 5819 5819 5819 5817 5816 5814 5812